Вернуться в каталог

THORAD AGENA D DEB

АктивенSSO
NORAD 42502·DEBRIS·🇺🇸 United States

Запущен Apr 8, 1970 с Vandenberg Space Force Base

Loading…

Ближайшие Пролёты (ближайшие 24 часа)

TLE

СвежийSource: Space-Track

Эпоха: Sep 14, 2026, 06:01 UTC

1 42502U 70025RG  26257.25109844  .00000007  00000-0  74430-4 0  9991
2 42502  99.7157 169.2201 0013993 351.3702 160.4004 13.54875461633450

Отслеживайте THORAD AGENA D DEB в реальном времени с AllMySat

Download on the App Store